Weather History for K08D - November, 2013

Change the Weather History Date:

Monday, November 4, 2013

  Actual Average (KMOT) Record (KMOT)
Temperature  
Mean Temperature 25 °F 35 °F  
Max Temperature 33 °F 44 °F 72 °F (1975)
Min Temperature 17 °F 26 °F -23 °F (1919)
Degree Days  
Heating Degree Days 40 30  
Month to date heating degree days 117  
Since 1 July heating degree days 1077  
Moisture  
Dew Point 20 °F    
Average Humidity 75    
Maximum Humidity 93    
Minimum Humidity 60    
Precipitation  
Precipitation 0.00 in 0.03 in 0.42 in (1959)
Month to date precipitation 0.12  
Year to date precipitation 16.18  
Sea Level Pressure  
Sea Level Pressure 29.81 in    
Wind  
Wind Speed 21 mph (West)    
Max Wind Speed 29 mph    
Max Gust Speed 39 mph    
Visibility 10 miles    
Events      
T = Trace of Precipitation, MM = Missing Value Source: NWS Daily Summary

Daily Weather History Graph

Daily Weather History Graph

Search for Another Location

Airport or City:

Trip Planner

Search our weather history database for the weather conditions in past years. The results will help you decide how hot, cold, wet, or windy it might be!

Date:

Astronomy

Nov. 04, 2013 Rise Set
Actual Time 7:40 AM CST 5:25 PM CST
Civil Twilight 7:07 AM CST 5:58 PM CST
Nautical Twilight 6:30 AM CST 6:35 PM CST
Astronomical Twilight 5:53 AM CST 7:11 PM CST
Moon 8:58 AM CST 6:26 PM CST
Length of Visible Light 10h 51m
Length of Day
9h 44m
New Moon, 2% of the Moon is Illuminated
Nov 4
New Moon
Nov 9
First Quarter
Nov 17
Full
Nov 25
Last Quarter
Dec 2
New

Hourly Weather History & Observations

Time (CST) Temp. Windchill Dew Point Humidity Pressure Visibility Wind Dir Wind Speed Gust Speed Precip Events Conditions
12:15 AM 33.8 °F 22.8 °F 28.4 °F 81% 29.63 in 10.0 mi WSW 18.4 mph 23.0 mph N/A   Overcast
12:35 AM 33.8 °F 22.5 °F 28.4 °F 81% 29.61 in 10.0 mi West 19.6 mph 26.5 mph N/A   Overcast
12:55 AM 33.8 °F 22.2 °F 28.4 °F 81% 29.62 in 10.0 mi West 20.7 mph 29.9 mph N/A   Overcast
1:15 AM 33.8 °F 22.2 °F 28.4 °F 81% 29.63 in 10.0 mi West 20.7 mph 31.1 mph N/A   Overcast
1:35 AM 33.8 °F 21.9 °F 26.6 °F 75% 29.64 in 10.0 mi West 21.9 mph 36.8 mph N/A   Overcast
1:55 AM 32.0 °F 17.9 °F 26.6 °F 80% 29.64 in 10.0 mi West 28.8 mph 34.5 mph N/A   Overcast
2:15 AM 32.0 °F 18.9 °F 26.6 °F 80% 29.65 in 10.0 mi West 24.2 mph 35.7 mph N/A   Overcast
2:35 AM 32.0 °F 18.1 °F 24.8 °F 75% 29.66 in 10.0 mi West 27.6 mph 35.7 mph N/A   Overcast
2:55 AM 32.0 °F 18.9 °F 24.8 °F 75% 29.66 in 10.0 mi West 24.2 mph 31.1 mph N/A   Overcast
3:15 AM 32.0 °F 19.2 °F 24.8 °F 75% 29.67 in 10.0 mi West 23.0 mph 32.2 mph N/A   Overcast
3:35 AM 32.0 °F 19.5 °F 24.8 °F 75% 29.67 in 10.0 mi West 21.9 mph 36.8 mph N/A   Overcast
3:55 AM 32.0 °F 19.2 °F 24.8 °F 75% 29.68 in 10.0 mi West 23.0 mph 33.4 mph N/A   Overcast
4:15 AM 32.0 °F 19.2 °F 24.8 °F 75% 29.69 in 10.0 mi West 23.0 mph 31.1 mph N/A   Overcast
4:35 AM 30.2 °F 17.1 °F 24.8 °F 80% 29.69 in 10.0 mi West 21.9 mph 29.9 mph N/A   Overcast
4:55 AM 30.2 °F 17.1 °F 23.0 °F 75% 29.70 in 10.0 mi West 21.9 mph 31.1 mph N/A   Overcast
5:15 AM 30.2 °F 17.4 °F 23.0 °F 75% 29.71 in 10.0 mi West 20.7 mph 28.8 mph N/A   Overcast
5:35 AM 28.4 °F 15.1 °F 23.0 °F 80% 29.72 in 10.0 mi West 20.7 mph 33.4 mph N/A   Overcast
5:55 AM 28.4 °F 14.1 °F 23.0 °F 80% 29.72 in 10.0 mi West 24.2 mph 34.5 mph N/A   Overcast
6:15 AM 28.4 °F 15.8 °F 23.0 °F 80% 29.73 in 10.0 mi West 18.4 mph 31.1 mph N/A   Overcast
6:35 AM 28.4 °F 15.4 °F 23.0 °F 80% 29.72 in 10.0 mi West 19.6 mph 27.6 mph N/A   Overcast
6:55 AM 28.4 °F 14.7 °F 21.2 °F 74% 29.72 in 10.0 mi West 21.9 mph 32.2 mph N/A   Overcast
7:15 AM 28.4 °F 14.1 °F 21.2 °F 74% 29.72 in 10.0 mi West 24.2 mph 36.8 mph N/A   Overcast
7:35 AM 28.4 °F 13.5 °F 21.2 °F 74% 29.72 in 10.0 mi West 26.5 mph 38.0 mph N/A   Overcast
7:55 AM 28.4 °F 15.1 °F 21.2 °F 74% 29.73 in 10.0 mi WNW 20.7 mph 39.1 mph N/A   Overcast
8:15 AM 28.4 °F 13.0 °F 21.2 °F 74% 29.75 in 10.0 mi West 28.8 mph 39.1 mph N/A   Overcast
8:35 AM 28.4 °F 14.1 °F 21.2 °F 74% 29.76 in 10.0 mi West 24.2 mph 38.0 mph N/A   Overcast
8:55 AM 28.4 °F 13.5 °F 21.2 °F 74% 29.77 in 10.0 mi West 26.5 mph 36.8 mph N/A   Overcast
9:15 AM 28.4 °F 14.1 °F 21.2 °F 74% 29.77 in 10.0 mi West 24.2 mph 34.5 mph N/A   Overcast
9:35 AM 28.4 °F 13.3 °F 19.4 °F 69% 29.78 in 10.0 mi WNW 27.6 mph 36.8 mph N/A   Overcast
9:55 AM 28.4 °F 16.2 °F 21.2 °F 74% 29.78 in 10.0 mi WNW 17.3 mph 29.9 mph N/A   Overcast
10:15 AM 28.4 °F 14.1 °F 19.4 °F 69% 29.79 in 10.0 mi WNW 24.2 mph 38.0 mph N/A   Overcast
10:35 AM 28.4 °F 13.5 °F 19.4 °F 69% 29.79 in 10.0 mi West 26.5 mph 35.7 mph N/A   Overcast
10:55 AM 28.4 °F 15.1 °F 19.4 °F 69% 29.80 in 10.0 mi WNW 20.7 mph 38.0 mph N/A   Overcast
11:15 AM 28.4 °F 14.4 °F 19.4 °F 69% 29.81 in 10.0 mi WNW 23.0 mph 33.4 mph N/A   Overcast
11:35 AM 28.4 °F 13.8 °F 19.4 °F 69% 29.82 in 10.0 mi WNW 25.3 mph 34.5 mph N/A   Overcast
11:55 AM 28.4 °F 13.3 °F 19.4 °F 69% 29.82 in 10.0 mi West 27.6 mph 35.7 mph N/A   Overcast
12:15 PM 30.2 °F 16.8 °F 19.4 °F 64% 29.82 in 10.0 mi WNW 23.0 mph 38.0 mph N/A   Overcast
12:35 PM 30.2 °F 16.8 °F 19.4 °F 64% 29.82 in 10.0 mi WNW 23.0 mph 38.0 mph N/A   Overcast
12:55 PM 32.0 °F 18.9 °F 19.4 °F 60% 29.83 in 10.0 mi WNW 24.2 mph 36.8 mph N/A   Overcast
1:15 PM 28.4 °F 14.1 °F 17.6 °F 64% 29.83 in 10.0 mi WNW 24.2 mph 35.7 mph N/A   Overcast
1:35 PM 28.4 °F 13.3 °F 17.6 °F 64% 29.83 in 10.0 mi WNW 27.6 mph 33.4 mph N/A   Overcast
1:55 PM 28.4 °F 14.1 °F 17.6 °F 64% 29.84 in 10.0 mi WNW 24.2 mph 33.4 mph N/A   Overcast
2:15 PM 26.6 °F 12.0 °F 17.6 °F 69% 29.86 in 10.0 mi WNW 23.0 mph 36.8 mph N/A   Overcast
2:35 PM 26.6 °F 12.0 °F 17.6 °F 69% 29.86 in 10.0 mi West 23.0 mph 29.9 mph N/A   Overcast
2:55 PM 26.6 °F 12.7 °F 17.6 °F 69% 29.87 in 10.0 mi WNW 20.7 mph 31.1 mph N/A   Overcast
3:15 PM 26.6 °F 12.0 °F 17.6 °F 69% 29.88 in 10.0 mi WNW 23.0 mph 31.1 mph N/A   Overcast
3:35 PM 26.6 °F 13.8 °F 17.6 °F 69% 29.89 in 10.0 mi WNW 17.3 mph 31.1 mph N/A   Overcast
3:55 PM 26.6 °F 12.7 °F 17.6 °F 69% 29.89 in 10.0 mi West 20.7 mph 27.6 mph N/A   Overcast
4:15 PM 26.6 °F 14.3 °F 17.6 °F 69% 29.89 in 10.0 mi WNW 16.1 mph 33.4 mph N/A   Overcast
4:35 PM 26.6 °F 13.4 °F 17.6 °F 69% 29.90 in 10.0 mi WNW 18.4 mph 28.8 mph N/A   Overcast
4:55 PM 26.6 °F 13.4 °F 17.6 °F 69% 29.90 in 10.0 mi WNW 18.4 mph 25.3 mph N/A   Overcast
5:15 PM 26.6 °F 13.4 °F 15.8 °F 64% 29.91 in 10.0 mi West 18.4 mph 31.1 mph N/A   Overcast
5:35 PM 24.8 °F 11.9 °F 17.6 °F 74% 29.91 in 10.0 mi WNW 16.1 mph 24.2 mph N/A   Overcast
5:55 PM 24.8 °F 13.4 °F 17.6 °F 74% 29.91 in 10.0 mi WNW 12.7 mph 24.2 mph N/A   Overcast
6:15 PM 24.8 °F 12.4 °F 17.6 °F 74% 29.91 in 10.0 mi West 15.0 mph 23.0 mph N/A   Overcast
6:35 PM 24.8 °F 12.4 °F 17.6 °F 74% 29.92 in 10.0 mi West 15.0 mph 20.7 mph N/A   Overcast
6:55 PM 23.0 °F 13.1 °F 17.6 °F 80% 29.92 in 10.0 mi West 9.2 mph 19.6 mph N/A   Mostly Cloudy
7:15 PM 23.0 °F 11.7 °F 17.6 °F 80% 29.93 in 10.0 mi West 11.5 mph 16.1 mph N/A   Scattered Clouds
7:35 PM 23.0 °F 11.7 °F 17.6 °F 80% 29.94 in 10.0 mi West 11.5 mph - N/A   Mostly Cloudy
7:55 PM 23.0 °F 10.6 °F 17.6 °F 80% 29.94 in 10.0 mi West 13.8 mph 18.4 mph N/A   Partly Cloudy
8:15 PM 23.0 °F 11.1 °F 17.6 °F 80% 29.94 in 10.0 mi West 12.7 mph 18.4 mph N/A   Clear
8:35 PM 23.0 °F 11.1 °F 15.8 °F 74% 29.95 in 10.0 mi West 12.7 mph 18.4 mph N/A   Clear
8:55 PM 21.2 °F 10.1 °F 15.8 °F 80% 29.95 in 10.0 mi West 10.4 mph 19.6 mph N/A   Clear
9:15 PM 21.2 °F 9.5 °F 15.8 °F 80% 29.96 in 10.0 mi West 11.5 mph 16.1 mph N/A   Clear
9:35 PM 19.4 °F 6.0 °F 15.8 °F 86% 29.97 in 10.0 mi West 13.8 mph - N/A   Clear
9:55 PM 19.4 °F 8.6 °F 15.8 °F 86% 29.97 in 10.0 mi West 9.2 mph 16.1 mph N/A   Partly Cloudy
10:15 PM 19.4 °F 6.6 °F 17.6 °F 93% 29.98 in 10.0 mi West 12.7 mph - N/A   Mostly Cloudy
10:35 PM 19.4 °F 7.2 °F 15.8 °F 86% 29.99 in 10.0 mi West 11.5 mph - N/A   Partly Cloudy
10:55 PM 19.4 °F 6.0 °F 15.8 °F 86% 29.99 in 10.0 mi West 13.8 mph 21.9 mph N/A   Clear
11:15 PM 19.4 °F 7.9 °F 15.8 °F 86% 30.00 in 10.0 mi West 10.4 mph - N/A   Clear
11:35 PM 17.6 °F 5.0 °F 15.8 °F 93% 30.00 in 10.0 mi West 11.5 mph 17.3 mph N/A   Clear
11:55 PM 17.6 °F 5.0 °F 15.8 °F 93% 29.99 in 10.0 mi WNW 11.5 mph - N/A   Clear